YAOGAN-40 03B

Last updated on Mon Sep 15 2025 00:02:08 GMT+0000 (Coordinated Universal Time)

1 65545U 25199B 25257.10926933 .00000024 00000+0 19519-5 0 9990 2 65545 85.9977 167.9634 0011309 335.4896 24.5754 14.22984026 1062
UTC large
Height (km)
Speed (km/s)
/
Latitude / Longitude
Inclination (degrees)
Orbital Period (minutes)
Azimuth
Elevation
Range (km)
Doppler Factor

Next 0 passes for location: London (51.5072 / 0.1276)

Sorry there are no passes over London.